HTV-X1

Last updated on Sun Apr 12 2026 00:02:13 GMT+0000 (Coordinated Universal Time)

1 66174U 25241A 26101.45123988 .00004964 00000+0 16673-3 0 9996 2 66174 51.6360 275.1060 0007389 300.5813 59.4439 15.32616737 25962

Satellite not in orbit

HTV-X1